Time_in_sec,gx,gy,gz
1314363692.17245817,-0.69639915,-0.01059111,-0.71757652
1314363692.21259642,-0.69644206,-0.01076829,-0.71753223
1314363692.27245641,-0.69653770,-0.01072228,-0.71744007
1314363692.32092071,-0.69662768,-0.01051781,-0.71735574
1314363692.36147857,-0.69670647,-0.01030580,-0.71728229
1314363692.42071700,-0.69678437,-0.01034190,-0.71720610
1314363692.47262025,-0.69687598,-0.01007778,-0.71712084
1314363692.52156258,-0.69690123,-0.01027498,-0.71709351
1314363692.56154275,-0.69678169,-0.01026965,-0.71720974
1314363692.61263061,-0.69675326,-0.01013438,-0.71723928
1314363692.67262173,-0.69688001,-0.01012534,-0.71711626
1314363692.71362305,-0.69667503,-0.01001113,-0.71731700
1314363692.76146245,-0.69664446,-0.00980273,-0.71734957
1314363692.81261659,-0.69661882,-0.00979853,-0.71737452
1314363692.87348962,-0.69669311,-0.00979125,-0.71730248
1314363692.92146254,-0.69670407,-0.00989867,-0.71729036
1314363692.96154141,-0.69676354,-0.01006264,-0.71723030
1314363693.02148128,-0.69662611,-0.01007733,-0.71736358
1314363693.07350349,-0.69654527,-0.01011505,-0.71744154
1314363693.11362576,-0.69644804,-0.01010929,-0.71753602
1314363693.17344332,-0.69655473,-0.01016806,-0.71743161
1314363693.22162485,-0.69664855,-0.01022458,-0.71733970
1314363693.26163411,-0.69685297,-0.01011358,-0.71714270
1314363693.32147264,-0.69670945,-0.01026384,-0.71727999
1314363693.36147547,-0.69679218,-0.01047638,-0.71719656
1314363693.42147255,-0.69681359,-0.01050341,-0.71717536
1314363693.47346950,-0.69655808,-0.01058132,-0.71742238
1314363693.52160120,-0.69656854,-0.01062177,-0.71741163
1314363693.57401967,-0.69652575,-0.01063142,-0.71745303
1314363693.62304091,-0.69678125,-0.01074671,-0.71720318
1314363693.66078663,-0.69679158,-0.01081964,-0.71719205
1314363693.71347761,-0.69687117,-0.01105154,-0.71711118
1314363693.76047206,-0.69689994,-0.01101919,-0.71708371
1314363693.82152343,-0.69688483,-0.01087972,-0.71710053
1314363693.87351179,-0.69694384,-0.01108142,-0.71704009
1314363693.92172170,-0.69700234,-0.01113470,-0.71698240
1314363693.97570634,-0.69697785,-0.01129230,-0.71700374
1314363694.02093363,-0.69691399,-0.01133423,-0.71706515
1314363694.06211042,-0.69682073,-0.01131927,-0.71715601
1314363694.11976266,-0.69690676,-0.01141842,-0.71707084
1314363694.16059971,-0.69703794,-0.01157022,-0.71694089
1314363694.21247983,-0.69701521,-0.01159971,-0.71696251
1314363694.26172185,-0.69693903,-0.01149968,-0.71703818
1314363694.31049180,-0.69700759,-0.01154076,-0.71697087
1314363694.37377787,-0.69697985,-0.01163659,-0.71699629
1314363694.41348314,-0.69707874,-0.01152861,-0.71690189
1314363694.47276950,-0.69704340,-0.01168720,-0.71693368
1314363694.52150369,-0.69723279,-0.01199357,-0.71674444
1314363694.57259345,-0.69726560,-0.01209933,-0.71671075
1314363694.62153959,-0.69725848,-0.01232091,-0.71671390
1314363694.67353892,-0.69747037,-0.01257835,-0.71650322
1314363694.72160459,-0.69732928,-0.01258477,-0.71664042
1314363694.76147699,-0.69731909,-0.01240244,-0.71665352
1314363694.82060719,-0.69745076,-0.01234360,-0.71652639
1314363694.86084366,-0.69745072,-0.01248228,-0.71652403
1314363694.92146707,-0.69742827,-0.01227800,-0.71654941
1314363694.96147299,-0.69725779,-0.01235038,-0.71671406
1314363695.02147365,-0.69730315,-0.01224879,-0.71667167
1314363695.07282448,-0.69734253,-0.01229834,-0.71663250
1314363695.11512923,-0.69722899,-0.01229848,-0.71674297
1314363695.17709184,-0.69694727,-0.01227523,-0.71701731
1314363695.22053742,-0.69692487,-0.01241006,-0.71703676
1314363695.27261996,-0.69680765,-0.01226825,-0.71715312
1314363695.31386447,-0.69696697,-0.01219064,-0.71699961
1314363695.36145020,-0.69694391,-0.01208260,-0.71702384
1314363695.41259408,-0.69694238,-0.01226621,-0.71702222
1314363695.47359967,-0.69718488,-0.01232629,-0.71678540
1314363695.52050543,-0.69730979,-0.01224826,-0.71666522
1314363695.56148648,-0.69734584,-0.01255580,-0.71662482
1314363695.62165236,-0.69739079,-0.01252219,-0.71658167
1314363695.67252612,-0.69738230,-0.01253414,-0.71658972
1314363695.70945287,-0.69733441,-0.01247719,-0.71663731
1314363695.76149607,-0.69737549,-0.01231899,-0.71660007
1314363695.82147408,-0.69741876,-0.01221162,-0.71655980
1314363695.87285066,-0.69721872,-0.01187278,-0.71676013
1314363695.91367364,-0.69727855,-0.01193392,-0.71670092
1314363695.96147656,-0.69738058,-0.01189258,-0.71660233
1314363696.01258516,-0.69746084,-0.01196577,-0.71652299
1314363696.06056905,-0.69752538,-0.01225670,-0.71645525
1314363696.11390758,-0.69744842,-0.01224026,-0.71653044
1314363696.16054296,-0.69751105,-0.01217690,-0.71647055
1314363696.22147417,-0.69758906,-0.01196786,-0.71639812
1314363696.27347994,-0.69749261,-0.01198312,-0.71649178
1314363696.31665230,-0.69740999,-0.01188015,-0.71657390
1314363696.36146522,-0.69741040,-0.01156227,-0.71657871
1314363696.41361380,-0.69750218,-0.01144435,-0.71649127
1314363696.47032309,-0.69747713,-0.01149521,-0.71651484
1314363696.51270294,-0.69735815,-0.01152064,-0.71663023
1314363696.56052089,-0.69731753,-0.01161822,-0.71666818
1314363696.62160802,-0.69724077,-0.01161951,-0.71674284
1314363696.67294979,-0.69736476,-0.01165079,-0.71662169
1314363696.72160220,-0.69752822,-0.01145035,-0.71646582
1314363696.76145554,-0.69759274,-0.01130927,-0.71640524
1314363696.81275368,-0.69770984,-0.01120960,-0.71629277
1314363696.87278771,-0.69775302,-0.01136991,-0.71624817
1314363696.92154169,-0.69778581,-0.01176168,-0.71620990
1314363696.96154547,-0.69764329,-0.01149452,-0.71635307
1314363697.02147555,-0.69769654,-0.01134828,-0.71630353
1314363697.07261610,-0.69753530,-0.01147061,-0.71645860
1314363697.12160230,-0.69768659,-0.01151504,-0.71631057
1314363697.16148186,-0.69770980,-0.01164523,-0.71628585
1314363697.22165179,-0.69768409,-0.01170794,-0.71630988
1314363697.27265358,-0.69775589,-0.01202956,-0.71623460
1314363697.31347561,-0.69767010,-0.01209603,-0.71631705
1314363697.37264442,-0.69768849,-0.01224549,-0.71629660
1314363697.41268945,-0.69765883,-0.01227875,-0.71632492
1314363697.46051979,-0.69774037,-0.01236769,-0.71624396
1314363697.52166677,-0.69773020,-0.01247292,-0.71625204
1314363697.57449198,-0.69750066,-0.01261862,-0.71647302
1314363697.62072134,-0.69773452,-0.01270789,-0.71624371
1314363697.67263508,-0.69767290,-0.01270055,-0.71630386
1314363697.71368027,-0.69783078,-0.01266750,-0.71615064
1314363697.77251339,-0.69781131,-0.01258281,-0.71617111
1314363697.81380939,-0.69790784,-0.01244856,-0.71607938
1314363697.87347913,-0.69792025,-0.01234417,-0.71606909
1314363697.92170000,-0.69781396,-0.01220108,-0.71617513
1314363697.96146894,-0.69764588,-0.01196342,-0.71634287
1314363698.01267552,-0.69761440,-0.01216145,-0.71637019
1314363698.06067681,-0.69759288,-0.01217333,-0.71639095
1314363698.12147260,-0.69763749,-0.01224553,-0.71634627
1314363698.16208172,-0.69760679,-0.01236647,-0.71637409
1314363698.22147226,-0.69772035,-0.01243210,-0.71626235
1314363698.27358150,-0.69773809,-0.01266634,-0.71624096
1314363698.31366706,-0.69764071,-0.01237148,-0.71634097
1314363698.36152458,-0.69751214,-0.01247029,-0.71646445
1314363698.42066097,-0.69760530,-0.01249417,-0.71637332
1314363698.46150470,-0.69772784,-0.01261410,-0.71625187
1314363698.52148628,-0.69769379,-0.01288035,-0.71628031
1314363698.56161618,-0.69755184,-0.01306996,-0.71641511
1314363698.61366630,-0.69738071,-0.01326570,-0.71657809
1314363698.67346907,-0.69733288,-0.01298127,-0.71662985
1314363698.71254301,-0.69724590,-0.01309384,-0.71671243
1314363698.76145720,-0.69727393,-0.01322672,-0.71668272
1314363698.81264353,-0.69734367,-0.01332521,-0.71661303
1314363698.86045861,-0.69738392,-0.01334199,-0.71657355
1314363698.92148447,-0.69742657,-0.01359773,-0.71652723
1314363698.96146894,-0.69739332,-0.01377511,-0.71655621
1314363699.01247716,-0.69730611,-0.01356421,-0.71664510
1314363699.07264781,-0.69715243,-0.01391756,-0.71678782
1314363699.12047577,-0.69728953,-0.01386475,-0.71665548
1314363699.17348170,-0.69714225,-0.01391887,-0.71679770
1314363699.21261597,-0.69713753,-0.01377208,-0.71680513
1314363699.27363324,-0.69706476,-0.01387043,-0.71687400
1314363699.31348062,-0.69711823,-0.01384834,-0.71682243
1314363699.37267566,-0.69732009,-0.01385932,-0.71662585
1314363699.42147398,-0.69729533,-0.01412342,-0.71664479
1314363699.47258520,-0.69735238,-0.01435922,-0.71658459
1314363699.52064085,-0.69746897,-0.01395558,-0.71647908
1314363699.57349539,-0.69738283,-0.01381348,-0.71656568
1314363699.62060523,-0.69737804,-0.01400519,-0.71656662
1314363699.67257309,-0.69736794,-0.01409038,-0.71657478
1314363699.70962572,-0.69727096,-0.01421644,-0.71666666
1314363699.76160002,-0.69718181,-0.01404273,-0.71675681
1314363699.81266594,-0.69708644,-0.01400314,-0.71685034
1314363699.87355089,-0.69725621,-0.01389101,-0.71668740
1314363699.92061973,-0.69723610,-0.01385226,-0.71670771
1314363699.96147680,-0.69713470,-0.01393602,-0.71680472
1314363700.02057028,-0.69712516,-0.01394860,-0.71681375
1314363700.06059694,-0.69722655,-0.01408078,-0.71671254
1314363700.12150812,-0.69724252,-0.01396289,-0.71669931
1314363700.16411185,-0.69721649,-0.01371083,-0.71672950
1314363700.22147655,-0.69734767,-0.01358164,-0.71660433
1314363700.26954913,-0.69723664,-0.01367259,-0.71671063
1314363700.32150006,-0.69728669,-0.01363990,-0.71666256
1314363700.37468243,-0.69746364,-0.01356553,-0.71649177
1314363700.42150140,-0.69739191,-0.01372378,-0.71655857
1314363700.46164680,-0.69719036,-0.01372829,-0.71675458
1314363700.52147627,-0.69724429,-0.01378916,-0.71670096
1314363700.56056762,-0.69735824,-0.01377818,-0.71659030
1314363700.62151241,-0.69735016,-0.01365811,-0.71660045
1314363700.66976404,-0.69731038,-0.01378803,-0.71663667
1314363700.72162962,-0.69727851,-0.01377208,-0.71666799
1314363700.77346253,-0.69732261,-0.01385625,-0.71662346
1314363700.82060957,-0.69724618,-0.01383409,-0.71669825
1314363700.86151147,-0.69701888,-0.01382795,-0.71691943
1314363700.92149615,-0.69705290,-0.01364052,-0.71688994
1314363700.96959257,-0.69714827,-0.01341652,-0.71680143
1314363701.01359797,-0.69702857,-0.01354934,-0.71691533
1314363701.07031250,-0.69694236,-0.01320496,-0.71700556
1314363701.12153697,-0.69692150,-0.01322805,-0.71702541
1314363701.17320061,-0.69689765,-0.01336647,-0.71704603
1314363701.22274065,-0.69692011,-0.01353510,-0.71702104
1314363701.27256417,-0.69714492,-0.01329672,-0.71680691
1314363701.32057500,-0.69697273,-0.01321101,-0.71697593
1314363701.36211181,-0.69698963,-0.01293606,-0.71696452
1314363701.42149687,-0.69687919,-0.01271954,-0.71707573
1314363701.46955252,-0.69685967,-0.01258803,-0.71709703
1314363701.52160668,-0.69682177,-0.01254689,-0.71713458
1314363701.56949091,-0.69692584,-0.01236626,-0.71703657
1314363701.62053514,-0.69687559,-0.01241266,-0.71708461
1314363701.67252302,-0.69691411,-0.01241418,-0.71704715
1314363701.70949388,-0.69689634,-0.01243531,-0.71706405
1314363701.76149917,-0.69681223,-0.01234024,-0.71714743
1314363701.82152510,-0.69684053,-0.01237623,-0.71711931
1314363701.87255025,-0.69684164,-0.01278471,-0.71711106
1314363701.92150402,-0.69673316,-0.01275839,-0.71721694
1314363701.96944404,-0.69669127,-0.01263990,-0.71725972
1314363702.02061319,-0.69676027,-0.01266512,-0.71719225
1314363702.06052232,-0.69684546,-0.01296560,-0.71710410
1314363702.10950208,-0.69682090,-0.01302050,-0.71712698
1314363702.16151571,-0.69680271,-0.01276260,-0.71714929
1314363702.21264505,-0.69685667,-0.01280931,-0.71709602
1314363702.26151729,-0.69677381,-0.01258425,-0.71718051
1314363702.32348156,-0.69675361,-0.01268785,-0.71719831
1314363702.36951876,-0.69647990,-0.01271131,-0.71746371
1314363702.42052984,-0.69638282,-0.01264515,-0.71755911
1314363702.46050549,-0.69656464,-0.01263627,-0.71738276
1314363702.50949526,-0.69652029,-0.01258910,-0.71742665
1314363702.56152701,-0.69641328,-0.01254326,-0.71753133
1314363702.62150526,-0.69642922,-0.01253885,-0.71751593
1314363702.67314458,-0.69657587,-0.01226096,-0.71737837
1314363702.72078300,-0.69639812,-0.01206159,-0.71755430
1314363702.76049590,-0.69646692,-0.01212418,-0.71748647
1314363702.81260371,-0.69643387,-0.01207516,-0.71751938
1314363702.87367320,-0.69646356,-0.01210967,-0.71748998
1314363702.92152476,-0.69659088,-0.01184660,-0.71737076
1314363702.96151376,-0.69663398,-0.01183933,-0.71732903
1314363703.02148819,-0.69650561,-0.01188216,-0.71745296
1314363703.07252145,-0.69643482,-0.01173906,-0.71752403
1314363703.12056541,-0.69630184,-0.01197223,-0.71764923
1314363703.16944981,-0.69612262,-0.01198289,-0.71782290
1314363703.22154045,-0.69593769,-0.01182597,-0.71800479
1314363703.27255774,-0.69596423,-0.01153927,-0.71798373
1314363703.30947566,-0.69603222,-0.01148274,-0.71791873
1314363703.36148143,-0.69608680,-0.01137701,-0.71786749
1314363703.42154145,-0.69618015,-0.01130196,-0.71777815
1314363703.46944451,-0.69607461,-0.01130215,-0.71788049
1314363703.52050185,-0.69598579,-0.01128553,-0.71796686
1314363703.56948519,-0.69609471,-0.01133017,-0.71786056
1314363703.62055945,-0.69610237,-0.01156686,-0.71784935
1314363703.67255259,-0.69609027,-0.01172356,-0.71785855
1314363703.71351004,-0.69606963,-0.01153085,-0.71788168
1314363703.76947618,-0.69594842,-0.01151964,-0.71799937
1314363703.82150912,-0.69593969,-0.01179052,-0.71800344
1314363703.86103725,-0.69593109,-0.01169717,-0.71801330
1314363703.91252232,-0.69610657,-0.01176807,-0.71784202
1314363703.96944904,-0.69626961,-0.01151030,-0.71768806
1314363704.02051926,-0.69611429,-0.01134012,-0.71784142
1314363704.07248759,-0.69602037,-0.01132304,-0.71793275
1314363704.10949349,-0.69591605,-0.01097969,-0.71803921
1314363704.16944981,-0.69582208,-0.01074122,-0.71813387
1314363704.20948577,-0.69573227,-0.01090567,-0.71821841
1314363704.26945138,-0.69570618,-0.01057826,-0.71824857
1314363704.32145786,-0.69573122,-0.01047570,-0.71822582
1314363704.37344050,-0.69569502,-0.01055974,-0.71825965
1314363704.42148161,-0.69562531,-0.01025872,-0.71833153
1314363704.46950054,-0.69553253,-0.01003667,-0.71842450
1314363704.52160835,-0.69527607,-0.00984572,-0.71867534
1314363704.56141877,-0.69517182,-0.00964665,-0.71877888
1314363704.62147355,-0.69515498,-0.00956230,-0.71879630
1314363704.67353344,-0.69513859,-0.00963502,-0.71881118
1314363704.72352433,-0.69519749,-0.00952655,-0.71875565
1314363704.77350855,-0.69511822,-0.00959616,-0.71883139
1314363704.81349516,-0.69526027,-0.00959127,-0.71869406
1314363704.86950088,-0.69513974,-0.00945348,-0.71881248
1314363704.92183137,-0.69511942,-0.00919672,-0.71883545
1314363704.96148634,-0.69523815,-0.00914305,-0.71872131
1314363705.01003098,-0.69517133,-0.00915247,-0.71878582
1314363705.07246590,-0.69519632,-0.00898694,-0.71876373
1314363705.12054586,-0.69516251,-0.00911448,-0.71879483
1314363705.16945529,-0.69499744,-0.00930785,-0.71895196
1314363705.22142029,-0.69481184,-0.00896754,-0.71913566
1314363705.26144791,-0.69491292,-0.00911215,-0.71903616
1314363705.32148743,-0.69495212,-0.00901399,-0.71899952
1314363705.36135054,-0.69513382,-0.00896333,-0.71882447
1314363705.42147040,-0.69513016,-0.00896041,-0.71882806
1314363705.46170616,-0.69529990,-0.00882787,-0.71866551
1314363705.52153444,-0.69532573,-0.00871018,-0.71864196
1314363705.56948566,-0.69519143,-0.00854026,-0.71877392
1314363705.62357640,-0.69527707,-0.00832716,-0.71869357
1314363705.67254043,-0.69516522,-0.00842971,-0.71880057
1314363705.70947623,-0.69505940,-0.00833898,-0.71890396
1314363705.77260351,-0.69506333,-0.00822663,-0.71890145
1314363705.81354928,-0.69508795,-0.00821159,-0.71887782
1314363705.87253213,-0.69514731,-0.00826808,-0.71881976
1314363705.90948963,-0.69537266,-0.00826953,-0.71860176
1314363705.96953988,-0.69542499,-0.00836384,-0.71855002
1314363706.02052784,-0.69543889,-0.00826440,-0.71853772
1314363706.06953382,-0.69558994,-0.00824406,-0.71839173
1314363706.12549019,-0.69566746,-0.00810993,-0.71831818
1314363706.17256141,-0.69590944,-0.00816491,-0.71808314
1314363706.22147846,-0.69603410,-0.00804286,-0.71796367
1314363706.26935339,-0.69596291,-0.00821063,-0.71803079
1314363706.31246567,-0.69588893,-0.00815985,-0.71810307
1314363706.36944890,-0.69607310,-0.00820179,-0.71792407
1314363706.42149806,-0.69611871,-0.00823220,-0.71787950
1314363706.46159697,-0.69612049,-0.00813617,-0.71787887
1314363706.52151608,-0.69604753,-0.00826225,-0.71794817
1314363706.57247686,-0.69598956,-0.00837182,-0.71800310
1314363706.60947847,-0.69580957,-0.00831973,-0.71817813
1314363706.67342377,-0.69582258,-0.00847783,-0.71816367
1314363706.72047496,-0.69586346,-0.00868015,-0.71812165
1314363706.76952910,-0.69574036,-0.00859615,-0.71824192
1314363706.82051873,-0.69555519,-0.00848755,-0.71842254
1314363706.87351370,-0.69571806,-0.00852260,-0.71826440
1314363706.92149496,-0.69586364,-0.00861187,-0.71812230
1314363706.97351718,-0.69596335,-0.00875485,-0.71802394
1314363707.02145624,-0.69602813,-0.00866439,-0.71796223
1314363707.06957960,-0.69598077,-0.00872962,-0.71800735
1314363707.12152839,-0.69621723,-0.00902604,-0.71777440
1314363707.16951251,-0.69630751,-0.00917501,-0.71768494
1314363707.22132516,-0.69621450,-0.00898813,-0.71777753
1314363707.27334809,-0.69614982,-0.00903896,-0.71783963
1314363707.32147002,-0.69597403,-0.00897372,-0.71801088
1314363707.37338305,-0.69606878,-0.00884174,-0.71792066
1314363707.42147803,-0.69577688,-0.00864439,-0.71820596
1314363707.46952796,-0.69556266,-0.00896045,-0.71840956
1314363707.52459431,-0.69560313,-0.00861983,-0.71837454
1314363707.56945539,-0.69565378,-0.00856270,-0.71832618
1314363707.61341643,-0.69570039,-0.00860836,-0.71828049
1314363707.67252898,-0.69546326,-0.00838870,-0.71851269
1314363707.71355987,-0.69570502,-0.00839347,-0.71827855
1314363707.76148033,-0.69566680,-0.00855456,-0.71831366
1314363707.82146144,-0.69548914,-0.00867882,-0.71848419
1314363707.87335777,-0.69551151,-0.00853768,-0.71846423
1314363707.92152214,-0.69543051,-0.00852745,-0.71854275
1314363707.96944833,-0.69543337,-0.00850506,-0.71854025
1314363708.02145982,-0.69538347,-0.00851866,-0.71858838
1314363708.06138182,-0.69540760,-0.00856036,-0.71856453
1314363708.12047434,-0.69536083,-0.00854672,-0.71860996
1314363708.16147161,-0.69544732,-0.00861591,-0.71852543
1314363708.22149515,-0.69534937,-0.00871153,-0.71861907
1314363708.26945758,-0.69535620,-0.00856860,-0.71861418
1314363708.32055068,-0.69533434,-0.00842350,-0.71863705
1314363708.36144924,-0.69528424,-0.00840266,-0.71868576
1314363708.41252327,-0.69523029,-0.00852676,-0.71873649
1314363708.46151614,-0.69517637,-0.00848160,-0.71878917
1314363708.52157903,-0.69508447,-0.00840244,-0.71887897
1314363708.57439756,-0.69512065,-0.00846967,-0.71884320
1314363708.61351109,-0.69517095,-0.00869437,-0.71879187
1314363708.67253947,-0.69519403,-0.00877455,-0.71876857
1314363708.72058249,-0.69512655,-0.00872459,-0.71883444
1314363708.76945138,-0.69509232,-0.00877956,-0.71886688
1314363708.82052541,-0.69498812,-0.00883330,-0.71896695
1314363708.86953068,-0.69492605,-0.00889257,-0.71902622
1314363708.90950394,-0.69489999,-0.00903174,-0.71904967
1314363708.96987915,-0.69501168,-0.00892550,-0.71894304
1314363709.02145815,-0.69515540,-0.00893075,-0.71880402
1314363709.07291245,-0.69512522,-0.00882085,-0.71883456
1314363709.12128949,-0.69517618,-0.00889493,-0.71878436
1314363709.16052747,-0.69500566,-0.00889254,-0.71894927
1314363709.20948386,-0.69505279,-0.00876389,-0.71890528
1314363709.26951027,-0.69517197,-0.00883495,-0.71878918
1314363709.30951095,-0.69530924,-0.00886051,-0.71865608
1314363709.36132169,-0.69537215,-0.00890488,-0.71859466
1314363709.42147136,-0.69543775,-0.00886978,-0.71853160
1314363709.47349167,-0.69540421,-0.00872314,-0.71856586
1314363709.52054381,-0.69525062,-0.00881605,-0.71871333
1314363709.56146502,-0.69529928,-0.00895247,-0.71866457
1314363709.62068105,-0.69536146,-0.00885299,-0.71860564
1314363709.66047144,-0.69523298,-0.00882612,-0.71873027
1314363709.70991993,-0.69518687,-0.00884645,-0.71877462
1314363709.77127171,-0.69521192,-0.00866051,-0.71875265
1314363709.82148075,-0.69523385,-0.00863591,-0.71873174
1314363709.86927748,-0.69527860,-0.00895008,-0.71868461
1314363709.92058921,-0.69522162,-0.00902741,-0.71873876
1314363709.96146369,-0.69527949,-0.00895162,-0.71868373
1314363710.02137923,-0.69518751,-0.00892419,-0.71877304
1314363710.06150246,-0.69541419,-0.00884024,-0.71855477
1314363710.12139940,-0.69558282,-0.00877787,-0.71839229
